20050109,000010,434188,31.400703,-121.978528,14.699,33.055,1.088,1.989
20050109,000041,434219,31.400490,-121.978510,14.701,33.062,1.113,2.026
20050109,000110,434249,31.400282,-121.978510,14.702,33.060,1.101,2.004
20050109,000140,434279,31.400078,-121.978518,14.701,33.064,1.076,1.965
20050109,000210,434308,31.399863,-121.978493,14.704,33.063,1.088,1.983
20050109,000241,434340,31.399675,-121.978536,14.706,33.064,1.101,2.003
20050109,000310,434368,31.399488,-121.978541,14.706,33.062,1.101,2.005
20050109,000341,434399,31.399280,-121.978571,14.706,33.063,1.101,2.004
20050109,000411,434429,31.399053,-121.978576,14.705,33.066,1.113,2.022
20050109,000440,434458,31.398843,-121.978551,14.704,33.067,1.101,2.004
20050109,000511,434490,31.398622,-121.978613,14.704,33.064,1.113,2.023
20050109,000541,434520,31.398375,-121.978631,14.701,33.070,1.101,2.007
20050109,000611,434549,31.398127,-121.978655,14.699,33.075,1.113,2.028
20050109,000640,434579,31.397855,-121.978671,14.699,33.068,1.113,2.029
20050109,000712,434610,31.397575,-121.978713,14.699,33.068,1.113,2.029
20050109,000740,434638,31.397305,-121.978740,14.700,33.065,1.101,2.011
20050109,000812,434670,31.396987,-121.978760,14.704,33.064,1.101,2.012
20050109,000840,434698,31.396720,-121.978776,14.703,33.062,1.126,2.052
20050109,000911,434729,31.396438,-121.978818,14.706,33.064,1.101,2.014
20050109,000942,434761,31.396157,-121.978876,14.705,33.064,1.101,2.016
20050109,001011,434789,31.395757,-121.978906,14.708,33.062,1.088,1.998
20050109,001042,434820,31.395282,-121.978883,14.710,33.062,1.126,2.057
20050109,001111,434850,31.394773,-121.978918,14.709,33.050,1.088,2.001
20050109,001142,434881,31.394265,-121.978928,14.710,33.065,1.113,2.041
20050109,001211,434909,31.393788,-121.978956,14.712,33.065,1.076,1.986
20050109,001241,434939,31.393342,-121.978935,14.712,33.061,1.113,2.046
20050109,001312,434970,31.392965,-121.979000,14.717,33.061,1.113,2.048
20050109,001342,435000,31.392630,-121.978996,14.722,33.061,1.113,2.050
20050109,001412,435030,31.392320,-121.979038,14.723,33.061,1.101,2.032
20050109,001442,435061,31.392010,-121.979051,14.725,33.066,1.101,2.032
20050109,001512,435091,31.391722,-121.979053,14.726,33.066,1.113,2.051
20050109,001542,435120,31.391418,-121.979033,14.727,33.068,1.101,2.029
20050109,001612,435150,31.391125,-121.979055,14.729,33.070,1.113,2.045
20050109,001642,435180,31.390842,-121.979070,14.727,33.071,1.113,2.041
20050109,001712,435211,31.390620,-121.979050,14.727,33.078,1.101,2.017
20050109,001741,435239,31.390482,-121.979008,14.726,33.074,1.151,2.087
20050109,001812,435271,31.390317,-121.978978,14.729,33.074,1.126,2.045
20050109,001842,435300,31.390230,-121.978955,14.728,33.079,1.088,1.984
20050109,001912,435330,31.390138,-121.978893,14.729,33.073,1.088,1.982
20050109,001942,435360,31.389980,-121.978848,14.729,33.073,1.101,1.999
20050109,002012,435391,31.389812,-121.978795,14.729,33.073,1.101,1.997
20050109,002042,435421,31.389635,-121.978828,14.730,33.084,1.113,2.015
20050109,002112,435451,31.389438,-121.978836,14.728,33.077,1.088,1.976
20050109,002142,435480,31.389257,-121.978846,14.730,33.073,1.101,1.993
20050109,002212,435510,31.389052,-121.978896,14.732,33.070,1.113,2.012
20050109,002242,435540,31.388827,-121.978933,14.733,33.071,1.163,2.087
20050109,002312,435571,31.388578,-121.978943,14.734,33.072,1.151,2.069
20050109,002342,435601,31.388305,-121.978930,14.733,33.074,1.113,2.014
20050109,002413,435632,31.388033,-121.978955,14.735,33.073,1.126,2.035
20050109,002443,435662,31.387805,-121.978973,14.730,33.079,1.126,2.036
20050109,002512,435690,31.387603,-121.978990,14.730,33.081,1.126,2.036
20050109,002543,435721,31.387425,-121.979003,14.731,33.082,1.138,2.054
20050109,002612,435751,31.387222,-121.979045,14.732,33.075,1.151,2.073
20050109,002642,435781,31.387023,-121.979060,14.735,33.075,1.151,2.071
20050109,002713,435812,31.386825,-121.979070,14.741,33.075,1.151,2.070
20050109,002743,435842,31.386617,-121.979098,14.738,33.076,1.176,2.106
20050109,002812,435870,31.386385,-121.979095,14.737,33.071,1.176,2.104
20050109,002842,435901,31.386130,-121.979093,14.738,33.078,1.151,2.062
20050109,002913,435931,31.385880,-121.979153,14.737,33.082,1.126,2.021
20050109,002943,435962,31.385607,-121.979181,14.740,33.079,1.176,2.092
20050109,003013,435992,31.385317,-121.979160,14.742,33.078,1.151,2.050
20050109,003043,436022,31.385068,-121.979203,14.741,33.079,1.176,2.085
20050109,003112,436050,31.384858,-121.979181,14.743,33.081,1.176,2.082
20050109,003143,436081,31.384692,-121.979156,14.743,33.079,1.163,2.061
20050109,003213,436111,31.384548,-121.979146,14.745,33.076,1.151,2.040
20050109,003243,436142,31.384385,-121.979143,14.745,33.078,1.176,2.075
20050109,003313,436172,31.384210,-121.979176,14.747,33.081,1.138,2.016
20050109,003342,436200,31.384002,-121.979188,14.746,33.079,1.202,2.107
20050109,003414,436233,31.383765,-121.979241,14.746,33.080,1.176,2.067
20050109,003443,436261,31.383533,-121.979210,14.745,33.080,1.151,2.027
20050109,003513,436291,31.383283,-121.979253,14.746,33.082,1.202,2.099
20050109,003543,436322,31.383053,-121.979275,14.745,33.082,1.215,2.115
20050109,003613,436352,31.382782,-121.979258,14.746,33.083,1.176,2.055
20050109,003643,436381,31.382520,-121.979263,14.745,33.079,1.189,2.071
20050109,003713,436411,31.382298,-121.979293,14.745,33.082,1.151,2.013
20050109,003742,436441,31.382083,-121.979268,14.746,33.085,1.176,2.049
20050109,003813,436472,31.381717,-121.979125,14.746,33.081,1.228,2.122
20050109,003843,436502,31.381242,-121.978816,14.746,33.080,1.202,2.084
20050109,003913,436532,31.381015,-121.978291,14.746,33.084,1.202,2.084
20050109,003943,436561,31.381172,-121.977678,14.743,33.085,1.240,2.140
20050109,004013,436591,31.381513,-121.976986,14.742,33.088,1.240,2.140
20050109,004043,436621,31.381857,-121.976168,14.741,33.089,1.266,2.180
20050109,004113,436652,31.382283,-121.975251,14.741,33.086,1.189,2.068
20050109,004144,436682,31.382713,-121.974330,14.741,33.084,1.228,2.126
20050109,004213,436712,31.383135,-121.973390,14.743,33.085,1.240,2.144
20050109,004244,436743,31.383587,-121.972438,14.747,33.080,1.371,2.337
20050109,004314,436773,31.384033,-121.971458,14.748,33.084,1.398,2.377
20050109,004344,436802,31.384518,-121.970521,14.745,33.085,1.506,2.536
20050109,004414,436832,31.384953,-121.969530,14.745,33.091,1.534,2.578
20050109,004444,436862,31.385440,-121.968538,14.741,33.091,1.506,2.538
20050109,004513,436891,31.385902,-121.967601,14.743,33.091,1.506,2.538
20050109,004544,436923,31.386373,-121.966628,14.739,33.096,1.520,2.557
20050109,004614,436953,31.386845,-121.965618,14.738,33.094,1.465,2.476
20050109,004644,436982,31.387337,-121.964640,14.733,33.094,1.506,2.534
20050109,004713,437012,31.387858,-121.963535,14.732,33.096,1.479,2.493
20050109,004744,437042,31.388405,-121.962401,14.732,33.093,1.452,2.452
20050109,004814,437073,31.388965,-121.961228,14.733,33.088,1.452,2.452
20050109,004844,437103,31.389517,-121.960088,14.735,33.087,1.452,2.452
20050109,004915,437134,31.390063,-121.958943,14.734,33.087,1.492,2.512
20050109,004944,437162,31.390610,-121.957800,14.732,33.089,1.465,2.473
20050109,005015,437194,31.391230,-121.956516,14.729,33.092,1.425,2.415
20050109,005044,437223,31.391913,-121.955251,14.726,33.094,1.465,2.473
20050109,005114,437253,31.392667,-121.953930,14.721,33.091,1.439,2.435
20050109,005145,437283,31.393435,-121.952591,14.725,33.087,1.385,2.356
20050109,005215,437314,31.394195,-121.951230,14.714,33.095,1.293,2.222
20050109,005245,437344,31.394992,-121.949823,14.702,33.096,1.319,2.260
20050109,005315,437374,31.395748,-121.948500,14.687,33.098,1.332,2.278
20050109,005345,437403,31.396505,-121.947161,14.662,33.098,1.371,2.333
20050109,005415,437433,31.397235,-121.945810,14.642,33.093,1.358,2.312
20050109,005445,437463,31.398003,-121.944470,14.626,33.084,1.371,2.330
20050109,005515,437494,31.398760,-121.943115,14.620,33.071,1.358,2.309
20050109,005544,437522,31.399477,-121.941795,14.612,33.062,1.371,2.328
20050109,005615,437553,31.400230,-121.940443,14.612,33.048,1.358,2.308
20050109,005645,437583,31.400987,-121.939103,14.610,33.039,1.358,2.307
20050109,005715,437613,31.401765,-121.937703,14.610,33.033,1.306,2.231
20050109,005745,437644,31.402515,-121.936345,14.613,33.025,1.345,2.287
20050109,005815,437674,31.403278,-121.935020,14.610,33.025,1.319,2.250
20050109,005845,437704,31.403992,-121.933640,14.608,33.023,1.306,2.231
20050109,005915,437733,31.404742,-121.932300,14.607,33.020,1.306,2.231
20050109,005945,437763,31.405470,-121.930990,14.601,33.032,1.306,2.232
20050109,010015,437793,31.406245,-121.929585,14.602,33.026,1.319,2.252
20050109,010045,437824,31.406978,-121.928215,14.603,33.020,1.266,2.176
20050109,010115,437854,31.407725,-121.926858,14.602,33.019,1.306,2.232
20050109,010145,437883,31.408470,-121.925501,14.600,33.020,1.332,2.270
20050109,010216,437915,31.409207,-121.924156,14.598,33.020,1.240,2.136
20050109,010246,437945,31.409977,-121.922765,14.595,33.018,1.253,2.155
20050109,010316,437974,31.410675,-121.921440,14.594,33.017,1.266,2.174
20050109,010345,438004,31.411413,-121.920098,14.592,33.017,1.266,2.173
20050109,010416,438034,31.412167,-121.918763,14.590,33.018,1.279,2.191
20050109,010446,438065,31.412917,-121.917361,14.590,33.017,1.240,2.133
20050109,010515,438093,31.413603,-121.916038,14.590,33.012,1.228,2.116
20050109,010546,438125,31.414380,-121.914668,14.590,33.016,1.240,2.134
20050109,010616,438154,31.415113,-121.913305,14.587,33.013,1.202,2.080
20050109,010645,438184,31.415835,-121.911995,14.587,33.010,1.189,2.062
20050109,010716,438214,31.416575,-121.910643,14.586,33.012,1.228,2.118
20050109,010746,438245,31.417330,-121.909246,14.586,33.007,1.163,2.024
20050109,010816,438275,31.418056,-121.907938,14.586,33.008,1.189,2.061
20050109,010846,438304,31.418818,-121.906565,14.585,33.006,1.202,2.080
20050109,010915,438334,31.419535,-121.905245,14.584,33.006,1.163,2.023
20050109,010946,438364,31.420306,-121.903828,14.582,33.007,1.151,2.004
20050109,011016,438395,31.421045,-121.902470,14.583,33.007,1.189,2.060
20050109,011046,438425,31.421801,-121.901141,14.586,33.004,1.151,2.004
20050109,011116,438455,31.422556,-121.899801,14.585,33.005,1.126,1.967
20050109,011145,438484,31.423261,-121.898476,14.587,33.003,1.151,2.003
20050109,011216,438514,31.424043,-121.897091,14.587,33.001,1.126,1.966
20050109,011246,438544,31.424773,-121.895801,14.587,33.000,1.113,1.947
20050109,011316,438575,31.425536,-121.894386,14.588,33.001,1.113,1.947
20050109,011346,438605,31.426275,-121.893068,14.590,33.001,1.113,1.947
20050109,011416,438635,31.427053,-121.891653,14.590,33.006,1.088,1.910
20050109,011446,438664,31.427778,-121.890298,14.593,33.000,1.051,1.856
20050109,011516,438694,31.428550,-121.888963,14.591,33.002,1.076,1.892
20050109,011546,438724,31.429283,-121.887618,14.594,32.994,1.051,1.856
20050109,011616,438755,31.430035,-121.886286,14.596,32.998,1.063,1.874
20050109,011646,438785,31.430771,-121.884936,14.596,33.000,1.038,1.837
20050109,011717,438816,31.431528,-121.883576,14.597,33.001,1.038,1.837
20050109,011746,438844,31.432301,-121.882240,14.597,33.003,1.051,1.855
20050109,011816,438874,31.433013,-121.880938,14.599,33.004,1.038,1.837
20050109,011846,438905,31.433761,-121.879581,14.599,33.005,1.026,1.820
20050109,011916,438935,31.434543,-121.878175,14.600,33.009,1.026,1.820
20050109,011946,438965,31.435293,-121.876823,14.600,33.001,1.002,1.784
20050109,012016,438994,31.436046,-121.875466,14.602,33.007,1.002,1.784
20050109,012046,439024,31.436800,-121.874120,14.601,33.005,1.002,1.784
20050109,012116,439054,31.437556,-121.872790,14.603,33.005,1.026,1.819
20050109,012146,439085,31.438291,-121.871450,14.605,33.005,1.002,1.784
20050109,012216,439115,31.439030,-121.870108,14.605,33.005,0.990,1.766
20050109,012246,439144,31.439778,-121.868773,14.607,33.005,0.977,1.748
20050109,012316,439174,31.440475,-121.867461,14.608,33.011,0.990,1.765
20050109,012346,439204,31.441260,-121.866081,14.606,33.007,0.990,1.765
20050109,012416,439234,31.442008,-121.864738,14.605,33.008,1.002,1.783
20050109,012447,439265,31.442781,-121.863321,14.606,33.007,0.965,1.730
20050109,012517,439295,31.443545,-121.861983,14.605,33.010,0.977,1.747
20050109,012547,439326,31.444275,-121.860640,14.605,33.007,0.990,1.765
20050109,012616,439354,31.445026,-121.859348,14.607,33.007,0.977,1.747
20050109,012647,439386,31.445753,-121.858000,14.605,33.007,1.014,1.801
20050109,012717,439415,31.446498,-121.856678,14.605,33.007,0.990,1.765
20050109,012747,439445,31.447255,-121.855301,14.605,33.007,1.002,1.783
20050109,012816,439475,31.447961,-121.854016,14.605,33.007,0.990,1.765
20050109,012847,439506,31.448698,-121.852688,14.605,33.009,0.977,1.747
20050109,012917,439536,31.449496,-121.851316,14.605,33.007,0.977,1.747
20050109,012947,439565,31.450231,-121.849973,14.605,33.010,1.014,1.800
20050109,013017,439595,31.450990,-121.848645,14.603,33.008,0.977,1.747
20050109,013047,439625,31.451740,-121.847321,14.599,33.004,1.002,1.782
20050109,013117,439656,31.452485,-121.845988,14.602,33.009,1.014,1.800
20050109,013147,439686,31.453235,-121.844651,14.602,33.008,1.014,1.800
20050109,013217,439716,31.453956,-121.843315,14.600,33.011,0.990,1.764
20050109,013247,439745,31.454705,-121.841963,14.601,33.009,1.002,1.782
20050109,013317,439775,31.455460,-121.840618,14.598,33.012,0.990,1.764
20050109,013347,439805,31.456190,-121.839345,14.597,33.011,0.990,1.764
20050109,013417,439836,31.456956,-121.837970,14.597,33.010,0.990,1.764
20050109,013447,439866,31.457676,-121.836675,14.595,33.010,0.990,1.764
20050109,013517,439896,31.458450,-121.835296,14.597,33.008,0.965,1.729
20050109,013547,439925,31.459193,-121.833958,14.597,33.008,0.990,1.764
20050109,013618,439957,31.459926,-121.832603,14.594,33.009,0.965,1.729
20050109,013647,439985,31.460646,-121.831326,14.593,33.019,0.977,1.746
20050109,013717,440016,31.461408,-121.829978,14.593,33.016,0.977,1.746
20050109,013747,440046,31.462128,-121.828643,14.590,33.008,0.977,1.746
20050109,013818,440077,31.462870,-121.827308,14.591,33.009,0.977,1.746
20050109,013848,440107,31.463628,-121.825928,14.592,33.009,0.977,1.746
20050109,013917,440135,31.464355,-121.824653,14.590,33.008,0.977,1.746
20050109,013948,440166,31.465075,-121.823303,14.590,33.008,0.977,1.746
20050109,014018,440196,31.465846,-121.821941,14.592,33.008,0.977,1.746
20050109,014048,440226,31.466535,-121.820658,14.592,33.007,0.977,1.746
20050109,014118,440257,31.467275,-121.819333,14.592,33.007,0.977,1.746
20050109,014148,440287,31.468043,-121.817973,14.592,33.013,0.977,1.746
20050109,014218,440316,31.468776,-121.816618,14.592,33.007,0.965,1.729
20050109,014248,440346,31.469523,-121.815283,14.591,33.011,0.965,1.729
20050109,014318,440376,31.470258,-121.813985,14.593,33.009,0.953,1.711
20050109,014349,440407,31.471035,-121.812606,14.593,33.011,0.941,1.693
20050109,014418,440437,31.471775,-121.811261,14.592,33.007,0.941,1.693
20050109,014449,440467,31.472510,-121.809915,14.593,33.007,0.965,1.728
20050109,014518,440496,31.473258,-121.808553,14.593,33.013,0.953,1.711
20050109,014548,440526,31.473975,-121.807241,14.592,33.009,0.953,1.711
20050109,014618,440556,31.474753,-121.805843,14.592,33.010,0.965,1.728
20050109,014649,440587,31.475500,-121.804493,14.591,33.007,0.977,1.746
20050109,014718,440617,31.476246,-121.803146,14.594,33.010,0.965,1.728
20050109,014748,440647,31.477005,-121.801790,14.592,33.009,0.965,1.728
20050109,014819,440678,31.477748,-121.800436,14.593,33.011,0.965,1.728
20050109,014848,440706,31.478515,-121.799105,14.592,33.010,0.977,1.746
20050109,014918,440736,31.479275,-121.797756,14.591,33.011,1.002,1.781
20050109,014948,440767,31.480018,-121.796388,14.590,33.014,0.990,1.764
20050109,015019,440797,31.480768,-121.795035,14.590,33.013,0.990,1.764
20050109,015048,440826,31.481528,-121.793690,14.589,33.013,1.038,1.834
20050109,015119,440858,31.482308,-121.792305,14.587,33.013,1.026,1.817
20050109,015149,440888,31.483045,-121.791000,14.587,33.013,1.051,1.852
20050109,015219,440917,31.483810,-121.789600,14.584,33.014,1.063,1.870
20050109,015249,440947,31.484550,-121.788240,14.584,33.016,1.076,1.888
20050109,015319,440977,31.485310,-121.786911,14.583,33.015,1.076,1.888
20050109,015349,441008,31.486081,-121.785588,14.582,33.014,1.051,1.852
20050109,015418,441036,31.486806,-121.784278,14.583,33.011,1.051,1.852
20050109,015449,441067,31.487570,-121.782883,14.583,33.014,1.076,1.888
20050109,015519,441097,31.488303,-121.781596,14.581,33.009,1.076,1.888
20050109,015549,441127,31.489103,-121.780233,14.579,33.016,1.101,1.925
20050109,015619,441157,31.489848,-121.778890,14.578,33.014,1.126,1.961
20050109,015649,441188,31.490611,-121.777540,14.577,33.014,1.126,1.961
20050109,015720,441218,31.491360,-121.776185,14.577,33.013,1.101,1.925
20050109,015749,441247,31.492133,-121.774860,14.574,33.015,1.126,1.961
20050109,015819,441277,31.492910,-121.773526,14.574,33.013,1.113,1.943
20050109,015849,441307,31.493680,-121.772176,14.577,33.011,1.151,1.997
20050109,015920,441338,31.494461,-121.770826,14.574,33.014,1.126,1.961
20050109,015950,441368,31.495281,-121.769448,14.574,33.015,1.126,1.961
20050109,020019,441398,31.496080,-121.768101,14.576,33.012,1.138,1.978
20050109,020049,441427,31.496846,-121.766753,14.574,33.015,1.126,1.961
20050109,020120,441459,31.497613,-121.765410,14.573,33.014,1.126,1.961
20050109,020150,441488,31.498428,-121.764025,14.572,33.016,1.138,1.979
20050109,020219,441518,31.499181,-121.762721,14.574,33.011,1.163,2.015
20050109,020250,441548,31.499960,-121.761363,14.573,33.009,1.176,2.034
20050109,020320,441579,31.500770,-121.760043,14.573,33.011,1.163,2.015
20050109,020350,441609,31.501575,-121.758660,14.574,33.010,1.163,2.015
20050109,020419,441637,31.502328,-121.757348,14.577,33.008,1.176,2.034
20050109,020449,441668,31.503121,-121.756021,14.572,33.015,1.228,2.108
20050109,020519,441698,31.503923,-121.754693,14.575,33.012,1.189,2.052
20050109,020549,441728,31.504720,-121.753358,14.576,33.010,1.151,1.997
20050109,020619,441757,31.505510,-121.752006,14.577,33.005,1.151,1.997
20050109,020650,441789,31.506300,-121.750668,14.583,33.007,1.163,2.015
20050109,020720,441819,31.507115,-121.749281,14.586,33.015,1.202,2.071
20050109,020750,441848,31.507903,-121.747948,14.587,33.007,1.176,2.034
20050109,020820,441878,31.508691,-121.746618,14.592,33.004,1.228,2.108
20050109,020850,441908,31.509480,-121.745283,14.596,33.006,1.215,2.090
20050109,020919,441937,31.510231,-121.743981,14.598,33.006,1.215,2.090
20050109,020950,441969,31.511043,-121.742625,14.602,33.004,1.202,2.071
20050109,021020,441998,31.511793,-121.741350,14.607,33.005,1.240,2.126
20050109,021050,442028,31.512586,-121.739980,14.610,33.012,1.240,2.126
20050109,021119,442058,31.513341,-121.738701,14.615,33.005,1.253,2.145
20050109,021150,442089,31.514108,-121.737363,14.618,33.006,1.253,2.145
20050109,021220,442119,31.514923,-121.735981,14.621,33.010,1.253,2.145
20050109,021250,442149,31.515696,-121.734628,14.624,33.009,1.215,2.090
20050109,021320,442178,31.516480,-121.733300,14.625,33.009,1.253,2.145
20050109,021350,442208,31.517251,-121.731946,14.629,33.010,1.240,2.126
20050109,021420,442238,31.518030,-121.730586,14.631,33.010,1.253,2.145
20050109,021451,442269,31.518836,-121.729255,14.636,33.009,1.228,2.108
20050109,021520,442299,31.519623,-121.727900,14.635,33.013,1.253,2.145
20050109,021550,442328,31.520378,-121.726588,14.635,33.015,1.266,2.164
20050109,021620,442358,31.521200,-121.725210,14.630,33.019,1.266,2.164
20050109,021651,442390,31.521973,-121.723895,14.625,33.030,1.306,2.220
20050109,021720,442419,31.522741,-121.722575,14.621,33.025,1.279,2.182
20050109,021750,442449,31.523528,-121.721240,14.620,33.022,1.253,2.145
20050109,021820,442479,31.524306,-121.719901,14.622,33.019,1.293,2.202
20050109,021851,442510,31.525100,-121.718576,14.620,33.018,1.345,2.277
20050109,021920,442538,31.525853,-121.717238,14.623,33.018,1.266,2.164
20050109,021950,442568,31.526640,-121.715936,14.625,33.014,1.253,2.145
20050109,022020,442599,31.527428,-121.714635,14.629,33.013,1.266,2.164
20050109,022051,442629,31.528203,-121.713311,14.636,33.008,1.202,2.071
20050109,022120,442659,31.528988,-121.711993,14.642,33.007,1.176,2.034
20050109,022150,442688,31.529760,-121.710651,14.649,33.007,1.189,2.052
20050109,022220,442718,31.530548,-121.709325,14.657,33.005,1.138,1.979
20050109,022250,442748,31.531316,-121.707988,14.664,33.006,1.088,1.907
20050109,022320,442779,31.532100,-121.706666,14.671,33.008,1.088,1.907
20050109,022350,442809,31.532875,-121.705330,14.675,33.009,1.063,1.870
20050109,022421,442840,31.533665,-121.703995,14.680,33.011,1.026,1.817
20050109,022450,442868,31.534446,-121.702681,14.683,33.014,1.014,1.799
20050109,022521,442900,31.535241,-121.701308,14.685,33.015,0.990,1.764
20050109,022550,442929,31.535990,-121.700030,14.686,33.019,0.990,1.764
20050109,022621,442959,31.536766,-121.698695,14.684,33.023,1.014,1.799
20050109,022651,442989,31.537570,-121.697335,14.681,33.028,1.002,1.782
20050109,022721,443020,31.538351,-121.696015,14.679,33.030,1.002,1.782
20050109,022751,443050,31.539141,-121.694710,14.674,33.023,1.002,1.782
20050109,022821,443080,31.539906,-121.693403,14.682,33.020,0.990,1.764
20050109,022851,443109,31.540665,-121.692105,14.672,33.028,1.038,1.834
20050109,022921,443139,31.541445,-121.690791,14.669,33.027,1.038,1.834
20050109,022951,443169,31.542216,-121.689510,14.665,33.028,1.038,1.834
20050109,023021,443200,31.543041,-121.688141,14.663,33.028,1.051,1.852
20050109,023051,443230,31.543833,-121.686810,14.659,33.019,1.063,1.870
20050109,023122,443261,31.544623,-121.685480,14.659,33.029,1.063,1.870
20050109,023152,443291,31.545413,-121.684160,14.655,33.028,1.063,1.870
20050109,023221,443319,31.546210,-121.682835,14.654,33.023,1.076,1.888
20050109,023252,443350,31.547008,-121.681500,14.654,33.030,1.101,1.925
20050109,023322,443380,31.547806,-121.680153,14.654,33.021,1.088,1.906
20050109,023351,443410,31.548616,-121.678838,14.651,33.023,1.076,1.888
20050109,023422,443441,31.549403,-121.677521,14.651,33.021,1.063,1.870
20050109,023452,443471,31.550230,-121.676151,14.650,33.021,1.063,1.870
20050109,023521,443499,31.551000,-121.674880,14.646,33.022,1.088,1.906
20050109,023551,443530,31.551798,-121.673561,14.646,33.021,1.101,1.925
20050109,023621,443560,31.552605,-121.672230,14.644,33.021,1.088,1.907
20050109,023652,443591,31.553425,-121.670883,14.642,33.022,1.113,1.943
20050109,023722,443621,31.554218,-121.669585,14.640,33.021,1.113,1.943
20050109,023752,443651,31.554990,-121.668248,14.639,33.025,1.126,1.961
20050109,023821,443680,31.555771,-121.666983,14.638,33.019,1.138,1.979
20050109,023851,443710,31.556558,-121.665685,14.638,33.022,1.126,1.961
20050109,023921,443740,31.557335,-121.664358,14.634,33.019,1.126,1.961
20050109,023951,443769,31.558116,-121.663023,14.630,33.022,1.126,1.961
20050109,024021,443799,31.558890,-121.661688,14.628,33.019,1.151,1.997
20050109,024052,443831,31.559715,-121.660336,14.628,33.019,1.126,1.961
20050109,024122,443860,31.560491,-121.659003,14.630,33.021,1.113,1.943
20050109,024152,443890,31.561271,-121.657660,14.625,33.019,1.151,1.997
20050109,024223,443921,31.562076,-121.656343,14.621,33.027,1.189,2.052
20050109,024253,443951,31.562856,-121.655010,14.617,33.021,1.189,2.052
20050109,024323,443981,31.563651,-121.653681,14.614,33.023,1.189,2.052
20050109,024353,444012,31.564415,-121.652331,14.611,33.019,1.215,2.090
20050109,024422,444040,31.565201,-121.650996,14.610,33.019,1.253,2.145
20050109,024453,444072,31.565986,-121.649663,14.605,33.020,1.240,2.126
20050109,024523,444101,31.566753,-121.648321,14.601,33.019,1.253,2.145
20050109,024553,444131,31.567543,-121.646981,14.595,33.021,1.293,2.201
20050109,024623,444161,31.568333,-121.645621,14.593,33.023,1.306,2.220